DW2047 Weather Reports


time (UTC)temp
F
wind
direction
speed
knots
gust
knots
rain 1hr
in
rain 24hr
in
rain mn
in
humidity
%
barometer
mb
20260901081047 80 150 0.0 2.6 0.00 0.00 0.00 76 1015.3
20260901080525 80 150 0.0 2.6 0.00 0.00 0.00 75 1015.3
20260901080035 80 150 0.0 1.7 0.00 0.00 0.00 75 1015.3
20260901075511 81 150 0.0 1.7 0.00 0.00 0.00 75 1015.4
20260901075053 81 150 0.9 2.6 0.00 0.00 0.00 75 1015.5
20260901074603 81 150 0.9 2.6 0.00 0.00 0.00 74 1015.4
20260901074042 81 150 0.0 4.3 0.00 0.00 0.00 74 1015.4
20260901073516 81 150 0.9 2.6 0.00 0.00 0.00 74 1015.5
20260901073036 81 150 1.7 3.5 0.00 0.00 0.00 74 1015.5
20260901072504 81 153 0.9 2.6 0.00 0.00 0.00 74 1015.5
20260901072045 82 153 0.9 4.3 0.00 0.00 0.00 74 1015.5
20260901071556 82 153 0.9 4.3 0.00 0.00 0.00 73 1015.6
20260901071033 82 153 0.9 2.6 0.00 0.00 0.00 73 1015.5
20260901070509 82 153 0.9 2.6 0.00 0.00 0.00 72 1015.6
20260901070023 82 153 0.9 4.3 0.00 0.00 0.00 72 1015.7
20260901065604 82 153 0.9 4.3 0.00 0.00 0.00 72 1015.7
20260901065038 82 150 0.9 4.3 0.00 0.00 0.00 71 1015.6
20260901064549 83 135 1.7 4.3 0.00 0.00 0.00 71 1015.5
20260901064026 83 144 1.7 4.3 0.00 0.00 0.00 71 1015.5
20260901063502 83 142 1.7 7.0 0.00 0.00 0.00 70 1015.4
20260901063015 83 145 2.6 7.0 0.00 0.00 0.00 70 1015.3
20260901062555 83 150 1.7 6.1 0.00 0.00 0.00 70 1015.2
20260901062033 83 185 1.7 6.1 0.00 0.00 0.00 70 1015.2
20260901061551 83 166 2.6 6.1 0.00 0.00 0.00 69 1015.2
20260901061019 83 152 1.7 6.1 0.00 0.00 0.00 69 1015.2
20260901060603 83 145 1.7 6.1 0.00 0.00 0.00 68 1015.2
20260901060009 84 161 2.6 6.1 0.00 0.00 0.00 68 1015.1
20260901055550 84 183 2.6 7.0 0.00 0.00 0.00 68 1015.1
20260901055024 84 148 3.5 7.0 0.00 0.00 0.00 67 1015.1
20260901054536 84 154 1.7 6.1 0.00 0.00 0.00 67 1015.1
20260901054011 84 152 1.7 7.0 0.00 0.00 0.00 67 1015.0
20260901053553 84 157 2.6 7.0 0.00 0.00 0.00 66 1015.0
20260901053124 84 142 1.7 5.2 0.00 0.00 0.00 66 1014.9
20260901052540 84 162 2.6 7.0 0.00 0.00 0.00 66 1014.9
20260901052016 84 148 3.5 7.0 0.00 0.00 0.00 65 1014.8
20260901051531 85 173 1.7 7.8 0.00 0.00 0.00 65 1014.8
20260901051003 85 145 3.5 7.8 0.00 0.00 0.00 65 1014.8
20260901050544 85 159 3.5 7.0 0.00 0.00 0.00 64 1014.8
20260901050058 85 175 3.5 7.0 0.00 0.00 0.00 64 1014.8
20260901045532 85 140 2.6 10.4 0.00 0.00 0.00 63 1014.8
20260901045009 85 138 3.5 7.0 0.00 0.00 0.00 63 1014.7
20260901044520 85 195 3.5 7.0 0.00 0.00 0.00 63 1014.7
20260901044101 85 150 2.6 7.0 0.00 0.00 0.00 63 1014.7
20260901043538 86 182 3.5 10.4 0.00 0.00 0.00 63 1014.7
20260901043049 86 142 2.6 10.4 0.00 0.00 0.00 63 1014.7
20260901042525 86 147 3.5 7.0 0.00 0.00 0.00 62 1014.6
20260901042002 86 175 1.7 7.8 0.00 0.00 0.00 62 1014.6
20260901041512 86 155 3.5 7.8 0.00 0.00 0.00 61 1014.6
20260901041053 86 163 3.5 12.2 0.00 0.00 0.00 61 1014.5
20260901040530 87 141 3.5 12.2 0.00 0.00 0.00 60 1014.6
20260901040041 87 154 3.5 10.4 0.00 0.00 0.00 60 1014.5
20260901035521 87 165 4.3 10.4 0.00 0.00 0.00 59 1014.6
20260901035058 86 170 4.3 10.4 0.00 0.00 0.00 59 1014.6
20260901034510 86 139 4.3 9.6 0.00 0.00 0.00 59 1014.5
20260901034043 85 150 3.5 8.7 0.00 0.00 0.00 59 1014.5
20260901033518 84 130 2.6 7.8 0.00 0.00 0.00 58 1014.5
20260901033029 83 154 1.7 5.2 0.00 0.00 0.00 57 1014.4
20260901032506 82 86 0.9 2.6 0.00 0.00 0.00 57 1014.3
20260901032047 82 86 0.9 2.6 0.00 0.00 0.00 58 1014.2
20260901031610 82 84 0.0 0.0 0.00 0.00 0.00 58 1014.2
20260901031034 82 84 0.0 0.0 0.00 0.00 0.00 59 1014.2
20260901030511 82 84 0.0 0.0 0.00 0.00 0.00 59 1014.1
20260901030024 82 84 0.0 0.0 0.00 0.00 0.00 58 1014.1
20260901025603 82 84 0.0 0.0 0.00 0.00 0.00 59 1013.9
20260901025040 82 84 0.0 0.0 0.00 0.00 0.00 59 1013.8
20260901024551 83 84 0.0 0.0 0.00 0.00 0.00 58 1013.8
20260901024029 83 84 0.0 0.0 0.00 0.00 0.00 57 1013.8
20260901023503 83 84 0.0 0.0 0.00 0.00 0.00 58 1013.7
20260901023014 84 84 0.0 0.0 0.00 0.00 0.00 57 1013.6
20260901022556 84 84 0.0 0.0 0.00 0.00 0.00 56 1013.5
20260901022034 85 84 0.0 0.0 0.00 0.00 0.00 55 1013.5
20260901021543 85 84 0.0 0.0 0.00 0.00 0.00 55 1013.4
20260901021020 86 84 0.0 0.0 0.00 0.00 0.00 53 1013.4
20260901020601 86 84 0.0 0.0 0.00 0.00 0.00 52 1013.3
20260901020008 87 84 0.0 0.0 0.00 0.00 0.00 51 1013.3
20260901015549 87 84 0.0 0.0 0.00 0.00 0.00 50 1013.2
20260901015025 88 84 0.0 0.0 0.00 0.00 0.00 49 1013.1
20260901014536 88 84 0.0 0.0 0.00 0.00 0.00 48 1013.0
20260901014015 89 84 0.0 0.0 0.00 0.00 0.00 46 1013.0
20260901013555 89 84 0.0 0.0 0.00 0.00 0.00 46 1013.0
20260901013001 90 84 0.0 0.0 0.00 0.00 0.00 44 1013.0
20260901012542 91 84 0.0 0.0 0.00 0.00 0.00 44 1013.0
20260901012022 91 84 0.0 0.9 0.00 0.00 0.00 43 1012.9
20260901011530 91 84 0.0 0.9 0.00 0.00 0.00 43 1012.9
20260901011009 92 84 0.0 1.7 0.00 0.00 0.00 42 1012.9
20260901010547 92 84 0.0 2.6 0.00 0.00 0.00 41 1012.9
20260901010058 92 84 0.0 3.5 0.00 0.00 0.00 41 1012.8
20260901005537 93 113 0.9 3.5 0.00 0.00 0.00 41 1012.8
20260901005013 93 134 0.9 3.5 0.00 0.00 0.00 40 1012.7
20260901004522 93 134 0.9 3.5 0.00 0.00 0.00 40 1012.8
20260901004107 94 86 0.9 7.8 0.00 0.00 0.00 40 1012.8
20260901003540 94 88 0.9 7.8 0.00 0.00 0.00 40 1012.9
20260901003052 94 126 0.9 3.5 0.00 0.00 0.00 40 1012.8
20260901002528 95 126 0.0 4.3 0.00 0.00 0.00 39 1012.7
20260901002007 95 126 1.7 7.0 0.00 0.00 0.00 39 1012.7
20260901001523 96 125 0.9 5.2 0.00 0.00 0.00 39 1012.7
20260901001056 96 125 0.9 3.5 0.00 0.00 0.00 38 1012.6
20260901000534 97 125 0.0 3.5 0.00 0.00 0.00 38 1012.5
20260901000044 97 125 0.0 3.5 0.00 0.00 0.00 38 1012.6
20260831235520 97 126 1.7 5.2 0.00 0.00 0.00 37 1012.6
20260831235101 97 117 0.9 3.5 0.00 0.00 0.00 38 1012.6
20260831234508 98 115 0.9 7.0 0.00 0.00 0.00 37 1012.6
20260831234049 98 67 0.9 7.0 0.00 0.00 0.00 37 1012.6
20260831233529 98 107 0.9 5.2 0.00 0.00 0.00 37 1012.6
20260831233037 98 67 2.6 5.2 0.00 0.00 0.00 37 1012.6
20260831232513 98 96 1.7 6.1 0.00 0.00 0.00 36 1012.7
20260831232055 98 132 1.7 5.2 0.00 0.00 0.00 36 1012.6
20260831231504 98 80 1.7 7.0 0.00 0.00 0.00 37 1012.6
20260831231047 98 121 1.7 7.0 0.00 0.00 0.00 37 1012.6
20260831230526 98 127 1.7 7.8 0.00 0.00 0.00 35 1012.7
20260831230053 99 136 2.6 6.1 0.00 0.00 0.00 36 1012.7
20260831225515 98 121 0.9 8.7 0.00 0.00 0.00 36 1012.7
20260831225103 99 132 3.5 8.7 0.00 0.00 0.00 34 1012.6
20260831224506 98 137 1.7 7.8 0.00 0.00 0.00 36 1012.7
20260831224048 98 142 2.6 7.8 0.00 0.00 0.00 35 1012.7
20260831223525 98 77 2.6 6.1 0.00 0.00 0.00 35 1012.8
20260831223036 98 135 1.7 7.8 0.00 0.00 0.00 36 1012.8
20260831222511 98 152 0.9 7.8 0.00 0.00 0.00 37 1012.9
20260831222053 97 144 0.9 7.8 0.00 0.00 0.00 37 1012.9
20260831221629 97 126 3.5 7.8 0.00 0.00 0.00 38 1012.9
20260831221040 98 132 5.2 8.7 0.00 0.00 0.00 36 1013.0
20260831220517 98 152 3.5 8.7 0.00 0.00 0.00 34 1013.0
20260831220030 98 78 1.7 7.8 0.00 0.00 0.00 37 1013.0
20260831215508 97 65 2.6 7.8 0.00 0.00 0.00 38 1013.1
20260831215046 97 154 2.6 7.0 0.00 0.00 0.00 37 1013.1
20260831214558 97 152 1.7 6.1 0.00 0.00 0.00 39 1013.2
20260831214033 97 139 1.7 7.8 0.00 0.00 0.00 39 1013.2
20260831213510 98 61 3.5 7.8 0.00 0.00 0.00 39 1013.3
20260831213021 97 130 1.7 6.1 0.00 0.00 0.00 40 1013.3
20260831212604 97 165 1.7 6.1 0.00 0.00 0.00 40 1013.3
20260831212039 96 69 0.9 7.0 0.00 0.00 0.00 42 1013.5
20260831211601 97 122 2.6 7.0 0.00 0.00 0.00 39 1013.5
20260831211026 98 133 2.6 8.7 0.00 0.00 0.00 38 1013.5
20260831210502 98 100 2.6 8.7 0.00 0.00 0.00 38 1013.6
20260831210013 98 93 2.6 7.8 0.00 0.00 0.00 38 1013.7
20260831205555 98 82 2.6 10.4 0.00 0.00 0.00 38 1013.8
20260831205032 98 114 4.3 10.4 0.00 0.00 0.00 39 1013.9
20260831204543 98 123 0.9 7.8 0.00 0.00 0.00 39 1014.0
20260831204019 98 105 2.6 8.7 0.00 0.00 0.00 39 1014.1
20260831203601 97 130 2.6 8.7 0.00 0.00 0.00 40 1014.2
20260831203009 97 137 2.6 9.6 0.00 0.00 0.00 39 1014.3
20260831202548 97 166 4.3 9.6 0.00 0.00 0.00 40 1014.4
20260831202025 96 132 5.2 10.4 0.00 0.00 0.00 42 1014.5
20260831201538 96 139 3.5 10.4 0.00 0.00 0.00 42 1014.5
20260831201016 97 136 3.5 8.7 0.00 0.00 0.00 40 1014.6
20260831200555 97 137 3.5 9.6 0.00 0.00 0.00 40 1014.6
20260831200001 97 153 2.6 8.7 0.00 0.00 0.00 41 1014.7
20260831195543 97 164 2.6 9.6 0.00 0.00 0.00 41 1014.7
20260831195020 97 146 4.3 10.4 0.00 0.00 0.00 40 1014.8
20260831194605 97 112 5.2 10.4 0.00 0.00 0.00 42 1014.9
20260831194012 97 145 1.7 7.8 0.00 0.00 0.00 43 1014.9
20260831193551 96 140 4.3 7.0 0.00 0.00 0.00 43 1014.9
20260831193108 96 134 2.6 10.4 0.00 0.00 0.00 44 1014.9
20260831192541 95 150 3.5 12.2 0.00 0.00 0.00 46 1015.0
20260831192019 95 162 3.5 11.3 0.00 0.00 0.00 44 1015.1
20260831191532 95 133 3.5 8.7 0.00 0.00 0.00 45 1015.2
20260831191011 95 132 3.5 8.7 0.00 0.00 0.00 46 1015.3
20260831190558 95 129 4.3 9.6 0.00 0.00 0.00 45 1015.3
20260831190004 95 71 3.5 10.4 0.00 0.00 0.00 46 1015.4
20260831185548 94 149 3.5 8.7 0.00 0.00 0.00 47 1015.5
20260831185025 94 159 5.2 8.7 0.00 0.00 0.00 46 1015.5
20260831184545 94 144 3.5 8.7 0.00 0.00 0.00 48 1015.5
20260831184015 95 148 2.6 8.7 0.00 0.00 0.00 46 1015.6
20260831183558 95 200 1.7 8.7 0.00 0.00 0.00 47 1015.7
20260831183005 94 142 2.6 10.4 0.00 0.00 0.00 45 1015.7
20260831182548 94 130 6.1 12.2 0.00 0.00 0.00 45 1015.7
20260831182026 94 155 2.6 8.7 0.00 0.00 0.00 46 1015.8
20260831181538 94 134 2.6 8.7 0.00 0.00 0.00 47 1015.8
20260831181015 94 128 1.7 8.7 0.00 0.00 0.00 47 1015.8
20260831180555 93 133 2.6 7.8 0.00 0.00 0.00 48 1016.0
20260831180002 93 160 3.5 9.6 0.00 0.00 0.00 47 1016.1
20260831175545 93 153 3.5 9.6 0.00 0.00 0.00 48 1016.2
20260831175021 93 90 1.7 9.6 0.00 0.00 0.00 50 1016.2
20260831174547 92 55 2.6 9.6 0.00 0.00 0.00 53 1016.3
20260831174013 92 136 3.5 9.6 0.00 0.00 0.00 53 1016.4
20260831173553 92 140 3.5 9.6 0.00 0.00 0.00 51 1016.5
20260831173008 92 140 4.3 10.4 0.00 0.00 0.00 51 1016.6
20260831172550 92 159 4.3 8.7 0.00 0.00 0.00 52 1016.6
20260831172027 91 153 3.5 8.7 0.00 0.00 0.00 53 1016.6
20260831171543 91 129 2.6 8.7 0.00 0.00 0.00 52 1016.7
20260831171014 91 186 0.9 5.2 0.00 0.00 0.00 56 1016.7
20260831170555 91 126 2.6 8.7 0.00 0.00 0.00 55 1016.8
20260831170002 91 147 4.3 8.7 0.00 0.00 0.00 55 1016.7
20260831165543 90 123 1.7 7.0 0.00 0.00 0.00 57 1016.8
20260831165020 90 132 1.7 9.6 0.00 0.00 0.00 57 1016.8
20260831164534 90 144 2.6 9.6 0.00 0.00 0.00 57 1016.8
20260831164008 89 136 2.6 6.1 0.00 0.00 0.00 58 1016.8
20260831163549 89 138 2.6 8.7 0.00 0.00 0.00 58 1016.8
20260831163101 89 159 1.7 8.7 0.00 0.00 0.00 61 1016.8
20260831162537 88 139 4.3 7.8 0.00 0.00 0.00 61 1016.8
20260831162015 88 126 3.5 8.7 0.00 0.00 0.00 63 1016.8
20260831161524 88 131 4.3 8.7 0.00 0.00 0.00 62 1016.9
20260831161002 88 138 2.6 7.8 0.00 0.00 0.00 64 1016.8
20260831160545 88 155 2.6 7.8 0.00 0.00 0.00 65 1016.8
20260831160053 87 200 1.7 6.1 0.00 0.00 0.00 66 1016.8
20260831155530 87 235 1.7 5.2 0.00 0.00 0.00 68 1016.8
20260831155007 87 158 1.7 4.3 0.00 0.00 0.00 68 1016.8
20260831154519 86 198 0.0 6.1 0.00 0.00 0.00 70 1016.8
20260831154100 86 199 0.9 6.1 0.00 0.00 0.00 70 1016.8
20260831153536 86 134 1.7 7.0 0.00 0.00 0.00 71 1016.8
20260831153047 85 199 1.7 8.7 0.00 0.00 0.00 71 1016.8
20260831152520 85 209 1.7 8.7 0.00 0.00 0.00 72 1016.8
20260831152101 85 138 3.5 7.8 0.00 0.00 0.00 72 1016.8
20260831151510 85 173 3.5 11.3 0.00 0.00 0.00 72 1016.7
20260831151052 84 140 4.3 11.3 0.00 0.00 0.00 73 1016.6
20260831150525 84 139 0.0 5.2 0.00 0.00 0.00 75 1016.6
20260831150036 84 144 1.7 7.0 0.00 0.00 0.00 75 1016.6
20260831145512 84 150 2.6 9.6 0.00 0.00 0.00 75 1016.6
20260831145055 84 162 2.6 9.6 0.00 0.00 0.00 75 1016.5
20260831144605 83 157 3.5 7.8 0.00 0.00 0.00 76 1016.5
20260831144041 83 140 4.3 8.7 0.00 0.00 0.00 77 1016.5
20260831143518 83 130 5.2 8.7 0.00 0.00 0.00 78 1016.4
20260831143031 83 159 1.7 7.0 0.00 0.00 0.00 79 1016.4
20260831142506 83 128 2.6 7.0 0.00 0.00 0.00 79 1016.4
20260831142046 82 176 1.7 6.1 0.00 0.00 0.00 80 1016.4
20260831141559 82 195 1.7 6.1 0.00 0.00 0.00 81 1016.3
20260831141034 82 193 0.9 6.1 0.00 0.00 0.00 82 1016.3
20260831140511 81 157 1.7 6.1 0.00 0.00 0.00 83 1016.3
20260831140026 81 209 1.7 6.1 0.00 0.00 0.00 84 1016.3
20260831135603 80 135 1.7 6.1 0.00 0.00 0.00 85 1016.2
20260831135040 80 271 0.9 3.5 0.00 0.00 0.00 86 1016.2
20260831134552 79 155 1.7 4.3 0.00 0.00 0.00 87 1016.1
20260831134027 79 158 0.9 6.1 0.00 0.00 0.00 88 1016.0
20260831133507 79 199 0.0 4.3 0.00 0.00 0.00 88 1016.1
20260831133014 78 150 0.9 4.3 0.00 0.00 0.00 88 1016.1
20260831132557 78 196 0.9 6.1 0.00 0.00 0.00 89 1016.0
20260831132032 78 136 0.9 6.1 0.00 0.00 0.00 89 1016.0
20260831131545 78 168 0.0 2.6 0.00 0.00 0.00 89 1015.9
20260831131021 77 155 1.7 2.6 0.00 0.00 0.00 89 1015.9
20260831130603 77 160 0.9 2.6 0.00 0.00 0.00 90 1015.8
20260831130008 77 160 0.0 0.9 0.00 0.00 0.00 90 1015.7
20260831125549 77 160 0.0 0.9 0.00 0.00 0.00 89 1015.7
20260831125023 77 160 0.0 0.0 0.00 0.00 0.00 89 1015.6
20260831124536 77 160 0.0 1.7 0.00 0.00 0.00 89 1015.5
20260831124011 77 160 0.0 1.7 0.00 0.00 0.00 89 1015.4
20260831123551 77 160 0.0 1.7 0.00 0.00 0.00 89 1015.5
20260831123102 77 160 0.0 1.7 0.00 0.00 0.00 89 1015.4
20260831122538 77 160 0.0 2.6 0.00 0.00 0.00 89 1015.4
20260831122015 77 160 0.0 2.6 0.00 0.00 0.00 89 1015.5
20260831121526 77 160 0.0 4.3 0.00 0.00 0.00 89 1015.5
20260831121003 77 160 0.0 2.6 0.00 0.00 0.00 89 1015.5
20260831120544 77 160 0.9 2.6 0.00 0.00 0.00 89 1015.5
20260831120055 77 146 0.0 3.5 0.00 0.00 0.00 88 1015.4
20260831115531 77 146 0.0 3.5 0.00 0.00 0.00 88 1015.4
20260831115008 77 145 0.0 3.5 0.00 0.00 0.00 88 1015.4
20260831114519 77 143 0.9 3.5 0.00 0.00 0.00 88 1015.3
20260831114100 77 134 0.9 3.5 0.00 0.00 0.00 88 1015.3
20260831113538 77 134 0.0 6.1 0.00 0.00 0.00 88 1015.4
20260831113057 78 134 1.7 6.1 0.00 0.00 0.00 87 1015.2
20260831112524 78 148 0.9 6.1 0.00 0.00 0.00 87 1015.2
20260831112002 78 165 1.7 6.1 0.00 0.00 0.00 87 1015.2
20260831111521 78 195 1.7 6.1 0.00 0.00 0.00 87 1015.2
20260831111053 78 136 1.7 7.8 0.00 0.00 0.00 87 1015.1
20260831110530 78 144 2.6 7.8 0.00 0.00 0.00 87 1015.1
20260831110041 78 153 2.6 7.8 0.00 0.00 0.00 87 1015.0
20260831105516 78 144 3.5 7.8 0.00 0.00 0.00 87 1015.0
20260831105058 78 146 1.7 4.3 0.00 0.00 0.00 87 1015.0
20260831104503 78 192 1.7 5.2 0.00 0.00 0.00 87 1015.0
20260831104045 78 202 1.7 5.2 0.00 0.00 0.00 88 1015.1
20260831103522 78 162 1.7 6.1 0.00 0.00 0.00 87 1015.0
20260831103053 78 162 1.7 7.8 0.00 0.00 0.00 87 1015.0
20260831102509 78 136 1.7 7.0 0.00 0.00 0.00 87 1015.0
20260831102050 78 215 2.6 4.3 0.00 0.00 0.00 87 1015.1
20260831101604 78 144 1.7 6.1 0.00 0.00 0.00 87 1015.2
20260831101038 78 144 2.6 7.0 0.00 0.00 0.00 87 1015.2
20260831100515 78 160 2.6 7.0 0.00 0.00 0.00 87 1015.3
20260831100035 78 177 1.7 7.8 0.00 0.00 0.00 86 1015.2
20260831095502 78 130 3.5 7.8 0.00 0.00 0.00 86 1015.1
20260831095043 78 188 0.9 5.2 0.00 0.00 0.00 86 1015.1
20260831094554 78 139 0.9 3.5 0.00 0.00 0.00 86 1015.1
20260831094031 78 153 0.0 4.3 0.00 0.00 0.00 86 1015.0
20260831093507 78 147 1.7 4.3 0.00 0.00 0.00 86 1015.0
20260831093019 78 218 1.7 7.8 0.00 0.00 0.00 85 1015.0
20260831092559 78 197 3.5 7.8 0.00 0.00 0.00 85 1015.0
20260831092035 79 157 2.6 7.0 0.00 0.00 0.00 85 1014.9
20260831091554 79 140 2.6 7.8 0.00 0.00 0.00 84 1015.0
20260831091023 79 153 2.6 7.8 0.00 0.00 0.00 84 1015.0
20260831090604 79 134 2.6 6.1 0.00 0.00 0.00 84 1014.9
20260831090011 79 143 0.9 7.0 0.00 0.00 0.00 83 1015.0
20260831085553 79 144 3.5 7.0 0.00 0.00 0.00 83 1015.1
20260831085028 79 165 2.6 7.8 0.00 0.00 0.00 82 1015.1
20260831084544 79 150 2.6 7.8 0.00 0.00 0.00 81 1015.0
20260831084016 79 265 4.3 7.8 0.00 0.00 0.00 80 1015.1
20260831083602 79 138 2.6 7.0 0.00 0.00 0.00 79 1015.2
20260831083010 80 135 2.6 6.1 0.00 0.00 0.00 79 1015.1
20260831082544 80 172 1.7 4.3 0.00 0.00 0.00 78 1015.1
20260831082021 80 146 2.6 7.0 0.00 0.00 0.00 78 1015.1
20260831081532 80 156 3.5 7.0 0.00 0.00 0.00 78 1015.0